User: anonymous   Login
Location: Le Rocchette
(44.3500°N, 7.8333°E)
Time: 02:52:50
(UTC+00:00)
Language:

N. Korean satellite - Orbit

View from above orbital plane
View from above orbital plane
View from above satellite
View from above satellite

Ground track
Ground track

The orbit data is extracted from the following two-line orbital elements,

1 39026U 12072A   21216.54372444  .00002154  00000-0  74423-4 0  9993
2 39026  97.2457 208.2501 0034392 210.1911 149.7349 15.30473527480387
Epoch (UTC): 04 August 2021 13:02:57
Eccentricity: 0.0034392
inclination: 97.2457°
perigee height: 451 km
apogee height: 498 km
right ascension of ascending node: 208.2501°
argument of perigee: 210.1911°
revolutions per day: 15.30473527
mean anomaly at epoch: 149.7349°
orbit number at epoch: 48038

The dashed part of the orbit path shows where the satellite is in the earth's shadow,  

DLR